• In Uzbekistan
  • List of Countries
  • For 7 days
  • Water Temperature
  • Satellite Maps
  • Weather Map
  • Weather Widgets
  • user-avatar
    Login

    Hourly Weather Andora

    Today, 9 December, Friday

    Time Temperature Precipitation Wind Pressure Humidity
    00:00 -1°C° 0 mm 1 mps 631 mmHg 62%
    01:00 -1°C° 0 mm 1 mps 631 mmHg 62%
    02:00 -1°C° 0 mm 1 mps 630 mmHg 61%
    03:00 -1°C° 0 mm 1 mps 630 mmHg 60%
    04:00 -1°C° 0 mm 1 mps 630 mmHg 59%
    05:00 -1°C° 0 mm 1 mps 630 mmHg 58%
    06:00 -1°C° 0 mm 1 mps 630 mmHg 57%
    07:00 +1°C° 0 mm 1 mps 631 mmHg 53%
    08:00 +3°C° 0 mm 1 mps 631 mmHg 49%
    09:00 +5°C° 0 mm 1 mps 632 mmHg 45%
    10:00 +6°C° 0 mm 1 mps 633 mmHg 44%
    11:00 +8°C° 0 mm 1 mps 633 mmHg 42%
    12:00 +10°C° 0 mm 1 mps 634 mmHg 41%
    13:00 +9°C° 0 mm 1 mps 633 mmHg 48%
    14:00 +8°C° 0 mm 1 mps 633 mmHg 54%
    15:00 +7°C° 0 mm 1 mps 632 mmHg 60%
    16:00 +4°C° 0 mm 1 mps 631 mmHg 65%
    17:00 +2°C° 0 mm 1 mps 630 mmHg 71%
    18:00 0°C° 0 mm 1 mps 629 mmHg 76%
    19:00 0°C° 0 mm 1 mps 629 mmHg 74%
    20:00 0°C° 0 mm 1 mps 629 mmHg 72%
    21:00 0°C° 0 mm 1 mps 629 mmHg 70%
    22:00 -1°C° 0 mm 1 mps 629 mmHg 67%
    23:00 -1°C° 0 mm 1 mps 628 mmHg 65%

    Tomorrow, 10 December, Saturday

    Time Temperature Precipitation Wind Pressure Humidity
    00:00 -1°C° 0 mm 1 mps 628 mmHg 63%
    01:00 -1°C° 0 mm 1 mps 628 mmHg 60%
    02:00 -1°C° 0 mm 1 mps 628 mmHg 58%
    03:00 -1°C° 0 mm 1 mps 628 mmHg 55%
    04:00 -1°C° 0 mm 1 mps 627 mmHg 57%
    05:00 -1°C° 0 mm 1 mps 627 mmHg 60%
    06:00 -1°C° 0 mm 1 mps 627 mmHg 63%
    07:00 +1°C° 0 mm 1 mps 628 mmHg 58%
    08:00 +3°C° 0 mm 1 mps 629 mmHg 53%
    09:00 +5°C° 0 mm 1 mps 630 mmHg 48%
    10:00 +6°C° 0 mm 1 mps 631 mmHg 47%
    11:00 +8°C° 0 mm 1 mps 631 mmHg 45%
    12:00 +10°C° 0 mm 1 mps 632 mmHg 43%
    13:00 +9°C° 0 mm 1 mps 631 mmHg 51%
    14:00 +8°C° 0 mm 1 mps 631 mmHg 58%
    15:00 +7°C° 0 mm 1 mps 630 mmHg 66%
    16:00 +4°C° 0 mm 1 mps 629 mmHg 71%
    17:00 +2°C° 0 mm 1 mps 628 mmHg 76%
    18:00 0°C° 0 mm 1 mps 627 mmHg 81%
    19:00 0°C° 0 mm 1 mps 627 mmHg 82%
    20:00 0°C° 0 mm 1 mps 627 mmHg 81%
    21:00 -1°C° 0 mm 1 mps 627 mmHg 81%
    22:00 0°C° 0 mm 1 mps 627 mmHg 78%
    23:00 0°C° 0 mm 1 mps 627 mmHg 76%

    Day after tomorrow, 11 December, Sunday

    Time Temperature Precipitation Wind Pressure Humidity
    00:00 0°C° 0 mm 1 mps 627 mmHg 73%
    01:00 -1°C° 0 mm 1 mps 626 mmHg 68%
    02:00 -1°C° 0 mm 1 mps 626 mmHg 63%
    03:00 -1°C° 0 mm 1 mps 626 mmHg 58%
    04:00 -1°C° 0 mm 1 mps 626 mmHg 57%
    05:00 -1°C° 0 mm 1 mps 626 mmHg 55%
    06:00 -1°C° 0 mm 1 mps 626 mmHg 54%
    07:00 +1°C° 0 mm 1 mps 626 mmHg 52%
    08:00 +2°C° 0 mm 1 mps 627 mmHg 51%
    09:00 +4°C° 0 mm 1 mps 628 mmHg 49%
    10:00 +6°C° 0 mm 1 mps 628 mmHg 46%
    11:00 +7°C° 0 mm 1 mps 629 mmHg 44%
    12:00 +9°C° 0 mm 1 mps 629 mmHg 42%
    13:00 +8°C° 0 mm 1 mps 628 mmHg 50%
    14:00 +7°C° 0 mm 1 mps 628 mmHg 59%
    15:00 +6°C° 0 mm 1 mps 627 mmHg 68%
    16:00 +4°C° 0 mm 1 mps 626 mmHg 73%
    17:00 +2°C° 0 mm 1 mps 625 mmHg 79%
    18:00 0°C° 0 mm 1 mps 625 mmHg 84%
    19:00 0°C° 0 mm 1 mps 625 mmHg 83%
    20:00 0°C° 0 mm 1 mps 625 mmHg 83%
    21:00 -1°C° 0 mm 1 mps 625 mmHg 82%
    22:00 -1°C° 0 mm 1 mps 625 mmHg 81%
    23:00 -1°C° 0 mm 1 mps 624 mmHg 81%

    12 December, Monday

    Time Temperature Precipitation Wind Pressure Humidity
    00:00 -1°C° 0 mm 1 mps 624 mmHg 80%
    01:00 -3°C° 0 mm 2 mps 624 mmHg 77%
    02:00 -3°C° 0 mm 2 mps 624 mmHg 75%
    03:00 -3°C° 0 mm 2 mps 624 mmHg 72%
    04:00 -3°C° 0 mm 2 mps 624 mmHg 70%
    05:00 -3°C° 0 mm 2 mps 623 mmHg 67%
    06:00 -4°C° 0 mm 2 mps 623 mmHg 64%
    07:00 -2°C° 0 mm 2 mps 624 mmHg 60%
    08:00 +1°C° 0 mm 2 mps 625 mmHg 56%
    09:00 +3°C° 0 mm 1 mps 626 mmHg 51%
    10:00 +5°C° 0 mm 1 mps 626 mmHg 51%
    11:00 +6°C° 0 mm 1 mps 627 mmHg 50%
    12:00 +8°C° 0 mm 1 mps 627 mmHg 50%
    13:00 +7°C° 0 mm 1 mps 627 mmHg 57%
    14:00 +6°C° 0 mm 1 mps 626 mmHg 63%
    15:00 +6°C° 0 mm 1 mps 626 mmHg 70%
    16:00 +4°C° 0 mm 1 mps 626 mmHg 76%
    17:00 +2°C° 0 mm 1 mps 625 mmHg 82%
    18:00 0°C° 0 mm 1 mps 625 mmHg 88%
    19:00 0°C° 0 mm 1 mps 625 mmHg 88%
    20:00 0°C° 0 mm 1 mps 625 mmHg 89%
    21:00 0°C° 0 mm 1 mps 625 mmHg 89%
    22:00 -1°C° 0 mm 1 mps 625 mmHg 89%
    23:00 -1°C° 0 mm 1 mps 625 mmHg 90%

    13 December, Tuesday

    Time Temperature Precipitation Wind Pressure Humidity
    00:00 -1°C° 0 mm 1 mps 625 mmHg 90%
    01:00 -1°C° 0 mm 1 mps 625 mmHg 90%
    02:00 -3°C° 0 mm 0 mps 624 mmHg 90%
    03:00 -3°C° 0 mm 0 mps 624 mmHg 91%
    04:00 -3°C° 0 mm 0 mps 624 mmHg 91%
    05:00 -3°C° 0 mm 0 mps 624 mmHg 91%
    06:00 -3°C° 0 mm 0 mps 624 mmHg 91%
    07:00 -1°C° 0 mm 0 mps 626 mmHg 87%
    08:00 +1°C° 0 mm 0 mps 627 mmHg 82%
    09:00 +3°C° 0 mm 0 mps 628 mmHg 78%
    10:00 +4°C° 0 mm 0 mps 628 mmHg 72%
    11:00 +5°C° 0 mm 0 mps 628 mmHg 67%
    12:00 +8°C° 0 mm 1 mps 629 mmHg 61%
    13:00 +7°C° 0 mm 1 mps 628 mmHg 66%
    14:00 +5°C° 0 mm 0 mps 628 mmHg 72%
    15:00 +4°C° 0 mm 0 mps 627 mmHg 78%
    16:00 +2°C° 0 mm 0 mps 626 mmHg 83%
    17:00 0°C° 0 mm 0 mps 625 mmHg 88%
    18:00 -3°C° 0 mm 0 mps 624 mmHg 93%
    19:00 -3°C° 0 mm 0 mps 624 mmHg 93%
    20:00 -3°C° 0 mm 0 mps 624 mmHg 93%
    21:00 -3°C° 0 mm 0 mps 624 mmHg 93%
    22:00 -3°C° 0 mm 0 mps 624 mmHg 92%
    23:00 -3°C° 0 mm 0 mps 624 mmHg 92%

    14 December, Wednesday

    Time Temperature Precipitation Wind Pressure Humidity
    00:00 -3°C° 0 mm 0 mps 624 mmHg 92%
    01:00 -3°C° 0 mm 0 mps 624 mmHg 91%
    02:00 -3°C° 0 mm 0 mps 624 mmHg 91%
    03:00 -3°C° 0 mm 0 mps 624 mmHg 90%
    04:00 -3°C° 0 mm 0 mps 624 mmHg 90%
    05:00 -2°C° 0 mm 1 mps 624 mmHg 89%
    06:00 -2°C° 0 mm 1 mps 624 mmHg 88%
    07:00 0°C° 0 mm 1 mps 625 mmHg 82%
    08:00 +1°C° 0 mm 1 mps 625 mmHg 75%
    09:00 +3°C° 0 mm 1 mps 626 mmHg 68%
    10:00 +5°C° 0 mm 1 mps 627 mmHg 62%
    11:00 +6°C° 0 mm 1 mps 627 mmHg 56%
    12:00 +7°C° 0 mm 1 mps 627 mmHg 49%
    13:00 +7°C° 0 mm 1 mps 627 mmHg 55%
    14:00 +6°C° 0 mm 1 mps 626 mmHg 61%
    15:00 +5°C° 0 mm 1 mps 626 mmHg 67%
    16:00 +3°C° 0 mm 1 mps 625 mmHg 74%
    17:00 +1°C° 0 mm 1 mps 624 mmHg 81%
    18:00 -1°C° 0 mm 1 mps 624 mmHg 88%
    19:00 -1°C° 0 mm 1 mps 624 mmHg 87%
    20:00 -1°C° 0 mm 1 mps 624 mmHg 86%
    21:00 -2°C° 0 mm 1 mps 624 mmHg 85%
    22:00 -2°C° 0 mm 1 mps 624 mmHg 85%
    23:00 -2°C° 0 mm 1 mps 624 mmHg 84%
    Show more